Grosse Ile, MI

8:48 PM EDT on October 19, 2017 (GMT -0400)
Grosse Ile Municipal

Weather History for KONZ - November, 2012

Change the Weather History Date:

Monday, November 5, 2012

  Actual Average (KDTW) Record (KDTW)
Temperature  
Mean Temperature 36 °F -  
Max Temperature 42 °F 50 °F 74 °F (1978)
Min Temperature 30 °F 34 °F 17 °F (1991)
Degree Days  
Heating Degree Days 29    
Moisture  
Dew Point 26 °F    
Average Humidity 66    
Maximum Humidity 86    
Minimum Humidity 46    
Precipitation  
Precipitation 0.00 in - - ()
Sea Level Pressure  
Sea Level Pressure 30.17 in    
Wind  
Wind Speed 2 mph (ENE)    
Max Wind Speed 7 mph    
Max Gust Speed -    
Visibility 10 miles    
Events      
Averages and records for this station are not official NWS values.
T = Trace of Precipitation, MM = Missing Value Source: NWS Daily Summary

Daily Weather History Graph

Daily Weather History Graph

Search for Another Location

Airport or City:

Trip Planner

Search our weather history database for the weather conditions in past years. The results will help you decide how hot, cold, wet, or windy it might be!

Date:

Astronomy

Nov. 05, 2012 Rise Set
Actual Time 7:10 AM EST 5:20 PM EST
Civil Twilight 6:41 AM EST 5:50 PM EST
Nautical Twilight 6:08 AM EST 6:23 PM EST
Astronomical Twilight 5:35 AM EST 6:56 PM EST
Moon 10:57 PM EST (11/5) 12:30 PM EST (11/5)
Length of Visible Light 11h 08m
Length of Day
10h 09m
Waning Gibbous, 63% of the Moon is Illuminated
Nov 5
Waning Gibbous
Nov 6
Last Quarter
Nov 13
New
Nov 20
First Quarter
Nov 28
Full

Hourly Weather History & Observations

Time (EST) Temp. Windchill Dew Point Humidity Pressure Visibility Wind Dir Wind Speed Gust Speed Precip Events Conditions
12:14 AM 32.0 °F - 26.6 °F 80% 30.15 in 10.0 mi Calm Calm - N/A   Scattered Clouds
12:34 AM 32.0 °F - 26.6 °F 80% 30.15 in 10.0 mi Calm Calm - N/A   Scattered Clouds
12:54 AM 32.0 °F - 26.6 °F 80% 30.16 in 10.0 mi Calm Calm - N/A   Clear
1:14 AM 30.2 °F 26.7 °F 24.8 °F 80% 30.16 in 10.0 mi NNW 3.5 mph - N/A   Clear
1:34 AM 30.2 °F - 24.8 °F 80% 30.15 in 10.0 mi Calm Calm - N/A   Clear
1:54 AM 30.2 °F 26.7 °F 24.8 °F 80% 30.16 in 10.0 mi NNW 3.5 mph - N/A   Scattered Clouds
2:14 AM 30.2 °F 26.7 °F 26.6 °F 86% 30.16 in 10.0 mi NW 3.5 mph - N/A   Mostly Cloudy
2:34 AM 32.0 °F - 26.6 °F 80% 30.16 in 10.0 mi Calm Calm - N/A   Overcast
2:54 AM 32.0 °F 28.7 °F 26.6 °F 80% 30.16 in 10.0 mi NW 3.5 mph - N/A   Overcast
3:14 AM 32.0 °F 28.7 °F 26.6 °F 80% 30.17 in 10.0 mi NW 3.5 mph - N/A   Overcast
3:34 AM 33.8 °F 28.6 °F 26.6 °F 75% 30.16 in 10.0 mi NW 5.8 mph - N/A   Overcast
3:54 AM 33.8 °F 28.6 °F 26.6 °F 75% 30.17 in 10.0 mi NW 5.8 mph - N/A   Overcast
4:14 AM 33.8 °F 30.8 °F 26.6 °F 75% 30.16 in 10.0 mi NNW 3.5 mph - N/A   Overcast
4:34 AM 33.8 °F 28.6 °F 26.6 °F 75% 30.17 in 10.0 mi NW 5.8 mph - N/A   Overcast
4:55 AM 33.8 °F - 26.6 °F 75% 30.17 in 10.0 mi Calm Calm - N/A   Overcast
5:14 AM 33.8 °F - 26.6 °F 75% 30.17 in 10.0 mi Calm Calm - N/A   Overcast
5:34 AM 33.8 °F 30.8 °F 26.6 °F 75% 30.17 in 10.0 mi North 3.5 mph - N/A   Overcast
5:54 AM 33.8 °F 29.6 °F 26.6 °F 75% 30.18 in 10.0 mi NNW 4.6 mph - N/A   Mostly Cloudy
6:14 AM 33.8 °F 29.6 °F 24.8 °F 70% 30.18 in 10.0 mi NNW 4.6 mph - N/A   Overcast
6:34 AM 33.8 °F 30.8 °F 26.6 °F 75% 30.18 in 10.0 mi NNW 3.5 mph - N/A   Overcast
6:54 AM 35.6 °F - 26.6 °F 70% 30.18 in 10.0 mi Calm Calm - N/A   Overcast
7:14 AM 35.6 °F 32.8 °F 26.6 °F 70% 30.19 in 10.0 mi NNW 3.5 mph - N/A   Overcast
7:34 AM 35.6 °F 32.8 °F 26.6 °F 70% 30.19 in 10.0 mi NNW 3.5 mph - N/A   Overcast
7:54 AM 35.6 °F - 26.6 °F 70% 30.19 in 10.0 mi Calm Calm - N/A   Overcast
8:14 AM 35.6 °F - 26.6 °F 70% 30.19 in 10.0 mi Calm Calm - N/A   Overcast
8:34 AM 37.4 °F - 26.6 °F 65% 30.19 in 10.0 mi Calm Calm - N/A   Overcast
8:54 AM 37.4 °F 33.8 °F 26.6 °F 65% 30.19 in 10.0 mi NNW 4.6 mph - N/A   Overcast
9:14 AM 37.4 °F 33.8 °F 24.8 °F 60% 30.19 in 10.0 mi NNW 4.6 mph - N/A   Overcast
9:34 AM 39.2 °F - 24.8 °F 56% 30.19 in 10.0 mi Calm Calm - N/A   Overcast
9:54 AM 39.2 °F - 24.8 °F 56% 30.20 in 10.0 mi Calm Calm - N/A   Overcast
10:14 AM 39.2 °F - 24.8 °F 56% 30.20 in 10.0 mi Calm Calm - N/A   Overcast
10:34 AM 39.2 °F 37.0 °F 23.0 °F 52% 30.20 in 10.0 mi NNE 3.5 mph - N/A   Overcast
10:54 AM 39.2 °F - 23.0 °F 52% 30.21 in 10.0 mi Calm Calm - N/A   Overcast
11:14 AM 39.2 °F - 23.0 °F 52% 30.21 in 10.0 mi Calm Calm - N/A   Overcast
11:34 AM 39.2 °F - 23.0 °F 52% 30.20 in 10.0 mi Calm Calm - N/A   Overcast
11:54 AM 39.2 °F - 24.8 °F 56% 30.20 in 10.0 mi Calm Calm - N/A   Overcast
12:14 PM 42.8 °F 41.1 °F 24.8 °F 49% 30.19 in 10.0 mi ESE 3.5 mph - N/A   Overcast
12:34 PM 42.8 °F 39.3 °F 23.0 °F 46% 30.18 in 10.0 mi SE 5.8 mph - N/A   Overcast
12:54 PM 42.8 °F - 23.0 °F 46% 30.18 in 10.0 mi Calm Calm - N/A   Mostly Cloudy
1:14 PM 42.8 °F 41.1 °F 24.8 °F 49% 30.17 in 10.0 mi ENE 3.5 mph - N/A   Mostly Cloudy
1:34 PM 42.8 °F 40.1 °F 23.0 °F 46% 30.17 in 10.0 mi NE 4.6 mph - N/A   Mostly Cloudy
1:54 PM 39.2 °F 37.0 °F 24.8 °F 56% 30.17 in 10.0 mi SSW 3.5 mph - N/A   Overcast
2:14 PM 41.0 °F 37.1 °F 24.8 °F 53% 30.16 in 10.0 mi SE 5.8 mph - N/A   Overcast
2:34 PM 42.8 °F 38.6 °F 26.6 °F 53% 30.16 in 10.0 mi South 6.9 mph - N/A   Mostly Cloudy
2:54 PM 41.0 °F 38.0 °F 24.8 °F 53% 30.16 in 10.0 mi SSE 4.6 mph - N/A   Overcast
3:14 PM 39.2 °F 37.0 °F 24.8 °F 56% 30.17 in 10.0 mi SSE 3.5 mph - N/A   Scattered Clouds
3:34 PM 42.8 °F 41.1 °F 26.6 °F 53% 30.16 in 10.0 mi SSE 3.5 mph - N/A   Scattered Clouds
3:54 PM 42.8 °F 40.1 °F 26.6 °F 53% 30.16 in 10.0 mi South 4.6 mph - N/A   Mostly Cloudy
4:14 PM 41.0 °F 39.0 °F 26.6 °F 57% 30.16 in 10.0 mi SSE 3.5 mph - N/A   Mostly Cloudy
4:54 PM 39.2 °F 37.0 °F 26.6 °F 61% 30.15 in 10.0 mi SSE 3.5 mph - N/A   Scattered Clouds
5:14 PM 39.2 °F 37.0 °F 26.6 °F 61% 30.15 in 10.0 mi SE 3.5 mph - N/A   Scattered Clouds
5:34 PM 39.2 °F 37.0 °F 26.6 °F 61% 30.15 in 10.0 mi SE 3.5 mph - N/A   Scattered Clouds
5:54 PM 39.2 °F 37.0 °F 26.6 °F 61% 30.16 in 10.0 mi East 3.5 mph - N/A   Scattered Clouds
6:14 PM 37.4 °F - 26.6 °F 65% 30.17 in 10.0 mi Calm Calm - N/A   Scattered Clouds
6:34 PM 37.4 °F 34.9 °F 26.6 °F 65% 30.17 in 10.0 mi ESE 3.5 mph - N/A   Mostly Cloudy
6:54 PM 37.4 °F 34.9 °F 26.6 °F 65% 30.17 in 10.0 mi ESE 3.5 mph - N/A   Overcast
7:14 PM 37.4 °F 34.9 °F 26.6 °F 65% 30.17 in 10.0 mi ESE 3.5 mph - N/A   Overcast
7:34 PM 37.4 °F 34.9 °F 26.6 °F 65% 30.17 in 10.0 mi SE 3.5 mph - N/A   Overcast
7:54 PM 37.4 °F - 26.6 °F 65% 30.17 in 10.0 mi Calm Calm - N/A   Overcast
8:14 PM 37.4 °F 34.9 °F 26.6 °F 65% 30.17 in 10.0 mi East 3.5 mph - N/A   Overcast
8:34 PM 37.4 °F 34.9 °F 26.6 °F 65% 30.17 in 10.0 mi ENE 3.5 mph - N/A   Overcast
8:54 PM 35.6 °F 31.7 °F 28.4 °F 75% 30.17 in 10.0 mi ENE 4.6 mph - N/A   Overcast
9:14 PM 35.6 °F 31.7 °F 28.4 °F 75% 30.17 in 10.0 mi NE 4.6 mph - N/A   Overcast
9:34 PM 35.6 °F 32.8 °F 28.4 °F 75% 30.17 in 10.0 mi ENE 3.5 mph - N/A   Mostly Cloudy
9:54 PM 35.6 °F 32.8 °F 28.4 °F 75% 30.17 in 10.0 mi ENE 3.5 mph - N/A   Overcast
10:14 PM 35.6 °F 32.8 °F 26.6 °F 70% 30.17 in 10.0 mi ENE 3.5 mph - N/A   Mostly Cloudy
10:34 PM 35.6 °F - 26.6 °F 70% 30.17 in 10.0 mi Calm Calm - N/A   Mostly Cloudy
10:54 PM 35.6 °F - 26.6 °F 70% 30.17 in 10.0 mi Calm Calm - N/A   Overcast
11:14 PM 35.6 °F 32.8 °F 26.6 °F 70% 30.16 in 10.0 mi ENE 3.5 mph - N/A   Overcast
11:34 PM 35.6 °F 32.8 °F 26.6 °F 70% 30.16 in 10.0 mi ENE 3.5 mph - N/A   Mostly Cloudy
11:54 PM 35.6 °F 32.8 °F 26.6 °F 70% 30.15 in 10.0 mi NE 3.5 mph - N/A   Overcast